,,PA_Meas_PMT16A,,PR_Meas_QMR101_102,,RH_Meas_QMH101,,SR_Meas_QMS101,,TA_Meas_QMH101,,GenWind,,GenWind,
time,status,PA,status,PR,status,RH,status,SR,status,TA,status,DirAvg,status,SpdAvg,
2013-10-02, 07:23:04,VALID,919.323,VALID,0,VALID,92.8685,VALID,58.0182,VALID,19.6053,VALID,141,VALID,0,
2013-10-02, 07:24:04,VALID,919.322,VALID,0,VALID,92.7693,VALID,58.7703,VALID,19.6443,VALID,141,VALID,0,
2013-10-02, 07:25:04,VALID,919.328,VALID,0,VALID,92.6093,VALID,59.415,VALID,19.6833,VALID,141,VALID,0,
2013-10-02, 07:26:04,VALID,919.335,VALID,0,VALID,92.3806,VALID,60.0596,VALID,19.7628,VALID,141,VALID,0,
2013-10-02, 07:27:04,VALID,919.295,VALID,0,VALID,92.3348,VALID,60.9191,VALID,19.8213,VALID,143,VALID,0,
2013-10-02, 07:28:04,VALID,919.305,VALID,0,VALID,92.3882,VALID,61.9935,VALID,19.8198,VALID,143,VALID,0,
2013-10-02, 07:29:04,VALID,919.334,VALID,0,VALID,92.5025,VALID,63.3903,VALID,19.8798,VALID,144,VALID,0,
2013-10-02, 07:30:04,VALID,919.355,VALID,0,VALID,92.6855,VALID,65.0019,VALID,19.8783,VALID,154,VALID,0,
2013-10-02, 07:31:04,VALID,919.337,VALID,0,VALID,92.7007,VALID,66.6135,VALID,19.8978,VALID,154,VALID,0,
2013-10-02, 07:32:04,VALID,919.369,VALID,0,VALID,92.5788,VALID,68.3326,VALID,19.9578,VALID,145,VALID,0,
2013-10-02, 07:33:04,VALID,919.368,VALID,0,VALID,92.594,VALID,70.1591,VALID,19.9758,VALID,145,VALID,0,
2013-10-02, 07:34:04,VALID,919.363,VALID,0,VALID,92.655,VALID,71.7707,VALID,19.9968,VALID,145,VALID,0,
2013-10-02, 07:35:04,VALID,919.412,VALID,0,VALID,92.6626,VALID,73.7046,VALID,19.9953,VALID,130,VALID,0,
2013-10-02, 07:36:04,VALID,919.433,VALID,0,VALID,92.7084,VALID,76.0683,VALID,20.0163,VALID,142,VALID,0,
2013-10-02, 07:37:04,VALID,919.469,VALID,0,VALID,92.6474,VALID,78.9692,VALID,20.0343,VALID,142,VALID,0,
2013-10-02, 07:38:04,VALID,919.487,VALID,0,VALID,92.5178,VALID,82.1925,VALID,20.0343,VALID,164,VALID,0,
2013-10-02, 07:39:04,VALID,919.543,VALID,0,VALID,91.9231,VALID,85.6306,VALID,20.0148,VALID,173,VALID,0,
2013-10-02, 07:40:04,VALID,919.567,VALID,0,VALID,91.5877,VALID,88.8538,VALID,20.0148,VALID,166,VALID,0,
2013-10-02, 07:41:04,VALID,919.594,VALID,0,VALID,91.6792,VALID,91.7547,VALID,20.0358,VALID,166,VALID,0,
2013-10-02, 07:42:04,VALID,919.582,VALID,0,VALID,91.8317,VALID,94.3333,VALID,20.0733,VALID,166,VALID,0,
2013-10-02, 07:43:04,VALID,919.606,VALID,0,VALID,91.6716,VALID,96.9119,VALID,20.1123,VALID,166,VALID,0,
2013-10-02, 07:44:04,VALID,919.583,VALID,0,VALID,91.5877,VALID,99.1682,VALID,20.1724,VALID,166,VALID,0,
2013-10-02, 07:45:04,VALID,919.627,VALID,0,VALID,91.7631,VALID,101.317,VALID,20.1708,VALID,166,VALID,0,
2013-10-02, 07:46:04,VALID,919.628,VALID,0,VALID,91.6716,VALID,103.358,VALID,20.1919,VALID,166,VALID,0,
2013-10-02, 07:47:04,VALID,919.651,VALID,0,VALID,91.8622,VALID,105.4,VALID,20.1708,VALID,166,VALID,0,
2013-10-02, 07:48:04,VALID,919.644,VALID,0,VALID,91.8774,VALID,107.119,VALID,20.2098,VALID,165,VALID,0,
2013-10-02, 07:49:04,VALID,919.68,VALID,0,VALID,91.9308,VALID,108.73,VALID,20.2293,VALID,164,VALID,0,
2013-10-02, 07:50:04,VALID,919.69,VALID,0,VALID,91.7859,VALID,110.127,VALID,20.2489,VALID,164,VALID,0,
2013-10-02, 07:51:04,VALID,919.728,VALID,0,VALID,91.9003,VALID,111.309,VALID,20.2879,VALID,164,VALID,0,
2013-10-02, 07:52:04,VALID,919.732,VALID,0,VALID,91.8469,VALID,112.383,VALID,20.3464,VALID,164,VALID,0,
2013-10-02, 07:53:04,VALID,919.751,VALID,0,VALID,92.1595,VALID,113.458,VALID,20.4049,VALID,164,VALID,0,
2013-10-02, 07:54:04,VALID,919.774,VALID,0,VALID,92.0985,VALID,114.532,VALID,20.4423,VALID,164,VALID,0,
2013-10-02, 07:55:04,VALID,919.761,VALID,0,VALID,92.1671,VALID,115.392,VALID,20.5024,VALID,164,VALID,0,
2013-10-02, 07:56:04,VALID,919.786,VALID,0,VALID,92.0527,VALID,116.144,VALID,20.5204,VALID,164,VALID,0,
2013-10-02, 07:57:04,VALID,919.816,VALID,0,VALID,91.8012,VALID,116.789,VALID,20.5999,VALID,164,VALID,0,
2013-10-02, 07:58:04,VALID,919.828,VALID,0,VALID,91.5953,VALID,117.326,VALID,20.6764,VALID,164,VALID,0,
2013-10-02, 07:59:04,VALID,919.864,VALID,0,VALID,91.077,VALID,117.863,VALID,20.7755,VALID,164,VALID,0,
2013-10-02, 08:00:04,VALID,919.909,VALID,0,VALID,90.3908,VALID,118.4,VALID,20.8519,VALID,203,VALID,0,
2013-10-02, 08:01:04,VALID,919.939,VALID,0,VALID,90.4518,VALID,119.045,VALID,20.912,VALID,203,VALID,0,
2013-10-02, 08:02:04,VALID,919.911,VALID,0,VALID,90.6577,VALID,120.227,VALID,20.891,VALID,203,VALID,0,
2013-10-02, 08:03:04,VALID,919.954,VALID,0,VALID,90.2917,VALID,121.838,VALID,20.912,VALID,203,VALID,0,
2013-10-02, 08:04:04,VALID,919.961,VALID,0,VALID,89.4379,VALID,123.45,VALID,20.912,VALID,203,VALID,0,
2013-10-02, 08:05:04,VALID,919.96,VALID,0,VALID,89.3693,VALID,125.062,VALID,20.93,VALID,203,VALID,0,
2013-10-02, 08:06:04,VALID,919.944,VALID,0,VALID,89.1787,VALID,126.566,VALID,20.9495,VALID,203,VALID,0,
2013-10-02, 08:07:04,VALID,919.965,VALID,0,VALID,89.9487,VALID,128.07,VALID,21.0096,VALID,203,VALID,0,
2013-10-02, 08:08:04,VALID,919.964,VALID,0,VALID,89.5142,VALID,129.789,VALID,21.0291,VALID,203,VALID,0,
2013-10-02, 08:09:04,VALID,919.991,VALID,0,VALID,89.6742,VALID,131.401,VALID,21.0876,VALID,202,VALID,0,
2013-10-02, 08:10:04,VALID,919.97,VALID,0,VALID,89.8038,VALID,132.905,VALID,21.1445,VALID,202,VALID,0,
2013-10-02, 08:11:04,VALID,919.982,VALID,0,VALID,89.8572,VALID,134.516,VALID,21.2031,VALID,198,VALID,0,
2013-10-02, 08:12:04,VALID,919.951,VALID,0,VALID,89.6819,VALID,135.913,VALID,21.2811,VALID,66,VALID,0,
2013-10-02, 08:13:04,VALID,919.953,VALID,0,VALID,89.6133,VALID,137.202,VALID,21.3217,VALID,66,VALID,0,
2013-10-02, 08:14:04,VALID,919.96,VALID,0,VALID,88.9348,VALID,138.492,VALID,21.3396,VALID,66,VALID,0,
2013-10-02, 08:15:04,VALID,919.971,VALID,0,VALID,89.1482,VALID,139.781,VALID,21.3786,VALID,66,VALID,0,
2013-10-02, 08:16:04,VALID,920.011,VALID,0,VALID,89.0339,VALID,140.963,VALID,21.4177,VALID,65,VALID,0,
2013-10-02, 08:17:04,VALID,920.016,VALID,0,VALID,89.4455,VALID,142.037,VALID,21.5168,VALID,65,VALID,0,
2013-10-02, 08:18:04,VALID,920.073,VALID,0,VALID,89.1711,VALID,143.112,VALID,21.4941,VALID,66,VALID,0,
2013-10-02, 08:19:04,VALID,920.044,VALID,0,VALID,88.7289,VALID,143.971,VALID,21.5754,VALID,65,VALID,0,
2013-10-02, 08:20:04,VALID,920.082,VALID,0,VALID,89.1863,VALID,145.046,VALID,21.6128,VALID,65,VALID,0,
2013-10-02, 08:21:04,VALID,920.059,VALID,0,VALID,88.363,VALID,145.798,VALID,21.6323,VALID,65,VALID,0,
2013-10-02, 08:22:04,VALID,920.073,VALID,0,VALID,88.241,VALID,146.55,VALID,21.6518,VALID,66,VALID,0,
2013-10-02, 08:23:04,VALID,920.041,VALID,0,VALID,87.8675,VALID,147.194,VALID,21.6924,VALID,22,VALID,0,
2013-10-02, 08:24:04,VALID,920.024,VALID,0,VALID,87.6617,VALID,147.839,VALID,21.7103,VALID,24,VALID,0,
2013-10-02, 08:25:04,VALID,920.012,VALID,0,VALID,88.2258,VALID,148.376,VALID,21.7493,VALID,24,VALID,0,
2013-10-02, 08:26:04,VALID,919.964,VALID,0,VALID,87.3262,VALID,148.806,VALID,21.7493,VALID,23,VALID,0,
2013-10-02, 08:27:04,VALID,919.946,VALID,0,VALID,86.3581,VALID,149.021,VALID,21.6713,VALID,357,VALID,0,
2013-10-02, 08:28:04,VALID,919.922,VALID,0,VALID,86.2971,VALID,149.343,VALID,21.6128,VALID,6,VALID,0,
2013-10-02, 08:29:04,VALID,919.936,VALID,0,VALID,87.4406,VALID,149.558,VALID,21.5932,VALID,360,VALID,0,
2013-10-02, 08:30:04,VALID,919.899,VALID,0,VALID,88.0047,VALID,149.666,VALID,21.5737,VALID,1,VALID,0,
2013-10-02, 08:31:04,VALID,919.922,VALID,0,VALID,88.2563,VALID,149.773,VALID,21.5737,VALID,347,VALID,0,
2013-10-02, 08:32:04,VALID,919.921,VALID,0,VALID,87.4253,VALID,149.88,VALID,21.5331,VALID,347,VALID,0,
2013-10-02, 08:33:04,VALID,919.924,VALID,0,VALID,87.6312,VALID,149.988,VALID,21.4177,VALID,347,VALID,0,
2013-10-02, 08:34:04,VALID,919.93,VALID,0,VALID,88.0276,VALID,150.095,VALID,21.3412,VALID,347,VALID,0,
2013-10-02, 08:35:04,VALID,919.915,VALID,0,VALID,88.2792,VALID,150.31,VALID,21.2811,VALID,347,VALID,0,
2013-10-02, 08:36:04,VALID,919.875,VALID,0,VALID,88.6984,VALID,150.525,VALID,21.2616,VALID,354,VALID,0,
2013-10-02, 08:37:04,VALID,919.881,VALID,0,VALID,88.5765,VALID,150.74,VALID,21.2811,VALID,356,VALID,0,
2013-10-02, 08:38:04,VALID,919.905,VALID,0,VALID,88.3249,VALID,150.847,VALID,21.3022,VALID,1,VALID,0,
2013-10-02, 08:39:04,VALID,919.928,VALID,0,VALID,88.5231,VALID,150.847,VALID,21.3396,VALID,341,VALID,0,
2013-10-02, 08:40:04,VALID,919.956,VALID,0,VALID,88.7061,VALID,150.847,VALID,21.3608,VALID,335,VALID,0,
2013-10-02, 08:41:04,VALID,919.974,VALID,0,VALID,88.7899,VALID,150.847,VALID,21.3608,VALID,335,VALID,0,
2013-10-02, 08:42:04,VALID,919.96,VALID,0,VALID,87.8294,VALID,150.847,VALID,21.2811,VALID,326,VALID,0,
2013-10-02, 08:43:04,VALID,919.97,VALID,0,VALID,88.2029,VALID,150.847,VALID,21.2811,VALID,314,VALID,0,
2013-10-02, 08:44:04,VALID,919.961,VALID,0,VALID,87.6159,VALID,150.74,VALID,21.2811,VALID,314,VALID,0,
2013-10-02, 08:45:04,VALID,919.991,VALID,0,VALID,87.6388,VALID,150.74,VALID,21.2827,VALID,307,VALID,0,
2013-10-02, 08:46:04,VALID,919.983,VALID,0,VALID,88.02,VALID,150.74,VALID,21.3217,VALID,318,VALID,0,
2013-10-02, 08:47:04,VALID,920.001,VALID,0,VALID,88.1953,VALID,150.632,VALID,21.3608,VALID,14,VALID,0,
2013-10-02, 08:48:04,VALID,920.021,VALID,0,VALID,87.4787,VALID,150.74,VALID,21.3608,VALID,328,VALID,0,
2013-10-02, 08:49:04,VALID,920.028,VALID,0,VALID,87.4787,VALID,150.955,VALID,21.3981,VALID,347,VALID,0,
2013-10-02, 08:50:04,VALID,920.028,VALID,0,VALID,87.6617,VALID,151.17,VALID,21.4372,VALID,341,VALID,0,
2013-10-02, 08:51:04,VALID,920.058,VALID,0,VALID,87.2271,VALID,151.599,VALID,21.4372,VALID,358,VALID,0,
2013-10-02, 08:52:04,VALID,920.052,VALID,0,VALID,87.1433,VALID,152.244,VALID,21.4567,VALID,8,VALID,0,
2013-10-02, 08:53:04,VALID,920.085,VALID,0,VALID,86.7545,VALID,152.996,VALID,21.4973,VALID,324,VALID,0,
2013-10-02, 08:54:04,VALID,920.067,VALID,0,VALID,87.8446,VALID,153.748,VALID,21.4957,VALID,336,VALID,0,
2013-10-02, 08:55:04,VALID,920.063,VALID,0,VALID,86.5944,VALID,154.608,VALID,21.5347,VALID,346,VALID,0,
2013-10-02, 08:56:04,VALID,920.044,VALID,0,VALID,88.02,VALID,155.575,VALID,21.5949,VALID,18,VALID,0,
2013-10-02, 08:57:04,VALID,920.086,VALID,0,VALID,87.8218,VALID,156.649,VALID,21.6128,VALID,359,VALID,0,
2013-10-02, 08:58:04,VALID,920.076,VALID,0,VALID,88.5079,VALID,158.153,VALID,21.6729,VALID,345,VALID,0,
2013-10-02, 08:59:04,VALID,920.058,VALID,0,VALID,87.6007,VALID,159.443,VALID,21.6924,VALID,335,VALID,0,
2013-10-02, 09:00:04,VALID,920.12,VALID,0,VALID,87.5092,VALID,160.947,VALID,21.6713,VALID,320,VALID,0,
2013-10-02, 09:01:04,VALID,920.081,VALID,0,VALID,87.8599,VALID,162.344,VALID,21.6729,VALID,325,VALID,0,
2013-10-02, 09:02:04,VALID,920.11,VALID,0,VALID,87.7608,VALID,163.525,VALID,21.6908,VALID,333,VALID,0,
2013-10-02, 09:03:04,VALID,920.125,VALID,0,VALID,88.0809,VALID,164.815,VALID,21.7315,VALID,353,VALID,0,
2013-10-02, 09:04:04,VALID,920.158,VALID,0,VALID,88.1648,VALID,166.104,VALID,21.7705,VALID,353,VALID,0,
2013-10-02, 09:05:04,VALID,920.149,VALID,0,VALID,87.4634,VALID,167.178,VALID,21.751,VALID,353,VALID,0,
2013-10-02, 09:06:04,VALID,920.102,VALID,0,VALID,87.8522,VALID,168.468,VALID,21.712,VALID,318,VALID,0,
2013-10-02, 09:07:04,VALID,920.158,VALID,0,VALID,88.2715,VALID,169.757,VALID,21.712,VALID,319,VALID,0,
2013-10-02, 09:08:04,VALID,920.158,VALID,0,VALID,87.8065,VALID,171.046,VALID,21.7103,VALID,18,VALID,0,
2013-10-02, 09:09:04,VALID,920.165,VALID,0,VALID,87.5778,VALID,172.336,VALID,21.7883,VALID,21,VALID,0,
2013-10-02, 09:10:04,VALID,920.162,VALID,0,VALID,87.776,VALID,173.625,VALID,21.9054,VALID,21,VALID,0,
2013-10-02, 09:11:04,VALID,920.187,VALID,0,VALID,86.602,VALID,175.022,VALID,21.9623,VALID,18,VALID,0,
2013-10-02, 09:12:04,VALID,920.147,VALID,0,VALID,86.6096,VALID,176.418,VALID,22.0989,VALID,19,VALID,0,
2013-10-02, 09:13:04,VALID,920.16,VALID,0,VALID,84.5818,VALID,177.923,VALID,22.1184,VALID,358,VALID,0,
2013-10-02, 09:14:04,VALID,920.137,VALID,0,VALID,83.667,VALID,179.534,VALID,22.0989,VALID,9,VALID,0,
2013-10-02, 09:15:04,VALID,920.124,VALID,0,VALID,85.1231,VALID,181.146,VALID,22.0989,VALID,9,VALID,0,
2013-10-02, 09:16:04,VALID,920.092,VALID,0,VALID,85.0316,VALID,182.972,VALID,22.0989,VALID,15,VALID,0,
2013-10-02, 09:17:04,VALID,920.071,VALID,0,VALID,84.3607,VALID,184.799,VALID,22.0794,VALID,31,VALID,0,
2013-10-02, 09:18:04,VALID,920.087,VALID,0,VALID,85.3823,VALID,186.518,VALID,22.0598,VALID,26,VALID,0,
2013-10-02, 09:19:04,VALID,920.086,VALID,0,VALID,85.0087,VALID,188.452,VALID,22.0598,VALID,17,VALID,0,
2013-10-02, 09:20:04,VALID,920.098,VALID,0,VALID,85.5957,VALID,190.171,VALID,22.0582,VALID,19,VALID,0,
2013-10-02, 09:21:04,VALID,920.091,VALID,0,VALID,83.6441,VALID,191.89,VALID,22.0403,VALID,1,VALID,0,
2013-10-02, 09:22:04,VALID,920.065,VALID,0,VALID,84.7419,VALID,193.502,VALID,22.0794,VALID,15,VALID,0,
2013-10-02, 09:23:04,VALID,920.102,VALID,0,VALID,83.8728,VALID,195.113,VALID,22.1005,VALID,3,VALID,0,
2013-10-02, 09:24:04,VALID,920.087,VALID,0,VALID,83.7356,VALID,196.94,VALID,22.1396,VALID,321,VALID,0,
2013-10-02, 09:25:04,VALID,920.072,VALID,0,VALID,83.4688,VALID,198.766,VALID,22.2193,VALID,353,VALID,0,
2013-10-02, 09:26:04,VALID,920.093,VALID,0,VALID,82.493,VALID,200.485,VALID,22.2388,VALID,358,VALID,0,
2013-10-02, 09:27:04,VALID,920.11,VALID,0,VALID,82.2643,VALID,202.204,VALID,22.2176,VALID,7,VALID,0,
2013-10-02, 09:28:04,VALID,920.082,VALID,0,VALID,83.7966,VALID,203.816,VALID,22.2567,VALID,345,VALID,0,
2013-10-02, 09:29:04,VALID,920.077,VALID,0,VALID,84.3226,VALID,204.89,VALID,22.2762,VALID,358,VALID,0,
2013-10-02, 09:30:04,VALID,920.097,VALID,0,VALID,84.1778,VALID,206.072,VALID,22.3364,VALID,18,VALID,0,
2013-10-02, 09:31:04,VALID,920.044,VALID,0,VALID,83.5298,VALID,207.684,VALID,22.3542,VALID,26,VALID,0,
2013-10-02, 09:32:04,VALID,920.006,VALID,0,VALID,83.606,VALID,209.403,VALID,22.2957,VALID,13,VALID,0,
2013-10-02, 09:33:04,VALID,920.03,VALID,0,VALID,84.8639,VALID,211.229,VALID,22.2957,VALID,30,VALID,0,
2013-10-02, 09:34:04,VALID,920.029,VALID,0,VALID,84.841,VALID,213.486,VALID,22.333,VALID,20,VALID,0,
2013-10-02, 09:35:04,VALID,920.015,VALID,0,VALID,83.2248,VALID,216.064,VALID,22.4518,VALID,48,VALID,0,
2013-10-02, 09:36:04,VALID,920.002,VALID,0,VALID,82.0813,VALID,219.18,VALID,22.4908,VALID,36,VALID,0,
2013-10-02, 09:37:04,VALID,920.02,VALID,0,VALID,83.1181,VALID,222.726,VALID,22.4908,VALID,41,VALID,0,
2013-10-02, 09:38:04,VALID,920.023,VALID,0,VALID,83.789,VALID,226.486,VALID,22.4925,VALID,27,VALID,0,
2013-10-02, 09:39:04,VALID,920.015,VALID,0,VALID,83.1181,VALID,230.784,VALID,22.4323,VALID,25,VALID,0,
2013-10-02, 09:40:04,VALID,920.058,VALID,0,VALID,83.8576,VALID,235.189,VALID,22.4908,VALID,32,VALID,0,
2013-10-02, 09:41:04,VALID,920.075,VALID,0,VALID,83.2858,VALID,239.809,VALID,22.5299,VALID,33,VALID,0,
2013-10-02, 09:42:04,VALID,920.08,VALID,0,VALID,83.4612,VALID,244.644,VALID,22.5477,VALID,32,VALID,0,
2013-10-02, 09:43:04,VALID,920.047,VALID,0,VALID,83.4002,VALID,250.016,VALID,22.6665,VALID,40,VALID,0,
2013-10-02, 09:44:04,VALID,920.04,VALID,0,VALID,82.1804,VALID,255.28,VALID,22.7055,VALID,57,VALID,0,
2013-10-02, 09:45:04,VALID,920.053,VALID,0,VALID,81.723,VALID,260.545,VALID,22.7445,VALID,34,VALID,0,
2013-10-02, 09:46:04,VALID,920.052,VALID,0,VALID,82.6759,VALID,265.487,VALID,22.7463,VALID,37,VALID,0,
2013-10-02, 09:47:04,VALID,920.039,VALID,0,VALID,80.7396,VALID,270.429,VALID,22.6665,VALID,21,VALID,0,
2013-10-02, 09:48:04,VALID,920.031,VALID,0,VALID,82.2567,VALID,275.157,VALID,22.6452,VALID,5,VALID,0,
2013-10-02, 09:49:04,VALID,920.004,VALID,0,VALID,81.38,VALID,279.669,VALID,22.725,VALID,355,VALID,0,
2013-10-02, 09:50:04,VALID,920.02,VALID,0,VALID,81.6239,VALID,283.752,VALID,22.7641,VALID,27,VALID,0,
2013-10-02, 09:51:04,VALID,920.008,VALID,0,VALID,81.4714,VALID,287.62,VALID,22.725,VALID,9,VALID,0,
2013-10-02, 09:52:04,VALID,920.018,VALID,0,VALID,80.9378,VALID,291.058,VALID,22.725,VALID,14,VALID,0,
2013-10-02, 09:53:04,VALID,920.02,VALID,0,VALID,81.4257,VALID,294.066,VALID,22.7038,VALID,45,VALID,0,
2013-10-02, 09:54:04,VALID,919.97,VALID,0,VALID,83.3087,VALID,296.86,VALID,22.725,VALID,25,VALID,0,
2013-10-02, 09:55:04,VALID,920.011,VALID,0,VALID,81.7993,VALID,299.761,VALID,22.8031,VALID,16,VALID,0,
2013-10-02, 09:56:04,VALID,920.034,VALID,0,VALID,81.9212,VALID,302.017,VALID,22.9592,VALID,7,VALID,0,
2013-10-02, 09:57:04,VALID,920.036,VALID,0,VALID,79.192,VALID,304.703,VALID,23.0568,VALID,357,VALID,0,
2013-10-02, 09:58:04,VALID,920.011,VALID,0,VALID,77.7893,VALID,307.389,VALID,23.0746,VALID,4,VALID,0,
2013-10-02, 09:59:04,VALID,920.012,VALID,0,VALID,80.0001,VALID,310.29,VALID,23.0551,VALID,29,VALID,0,
2013-10-02, 10:00:04,VALID,920.031,VALID,0,VALID,80.1907,VALID,313.298,VALID,22.977,VALID,41,VALID,0,
2013-10-02, 10:01:04,VALID,920.062,VALID,0,VALID,79.253,VALID,317.059,VALID,22.977,VALID,44,VALID,0,
2013-10-02, 10:02:04,VALID,920.059,VALID,0,VALID,78.0638,VALID,320.282,VALID,22.938,VALID,41,VALID,0,
2013-10-02, 10:03:04,VALID,920.056,VALID,0,VALID,78.9024,VALID,323.613,VALID,22.9787,VALID,12,VALID,0,
2013-10-02, 10:04:04,VALID,920.081,VALID,0,VALID,78.7118,VALID,326.621,VALID,23.0941,VALID,12,VALID,0,
2013-10-02, 10:05:04,VALID,920.098,VALID,0,VALID,78.8719,VALID,329.522,VALID,23.2112,VALID,12,VALID,0,
2013-10-02, 10:06:04,VALID,920.09,VALID,0,VALID,76.9126,VALID,333.39,VALID,23.2307,VALID,63,VALID,0,
2013-10-02, 10:07:04,VALID,920.103,VALID,0,VALID,77.5301,VALID,336.506,VALID,23.1917,VALID,63,VALID,0,
2013-10-02, 10:08:04,VALID,920.046,VALID,0,VALID,78.0485,VALID,339.299,VALID,23.1935,VALID,56,VALID,0,
2013-10-02, 10:09:04,VALID,920.054,VALID,0,VALID,78.2544,VALID,342.845,VALID,23.1136,VALID,89,VALID,0,
2013-10-02, 10:10:04,VALID,920.044,VALID,0,VALID,78.8337,VALID,346.605,VALID,23.1722,VALID,5,VALID,0,
2013-10-02, 10:11:04,VALID,920.027,VALID,0,VALID,77.431,VALID,349.613,VALID,23.2698,VALID,351,VALID,0,
2013-10-02, 10:12:04,VALID,920.029,VALID,0,VALID,76.8745,VALID,351.977,VALID,23.3674,VALID,350,VALID,0,
2013-10-02, 10:13:04,VALID,919.998,VALID,0,VALID,76.3866,VALID,350.795,VALID,23.543,VALID,9,VALID,0,
2013-10-02, 10:14:04,VALID,920.029,VALID,0,VALID,74.5494,VALID,350.473,VALID,23.6211,VALID,32,VALID,0,
2013-10-02, 10:15:04,VALID,920.045,VALID,0,VALID,74.435,VALID,348.754,VALID,23.6016,VALID,32,VALID,0,
2013-10-02, 10:16:04,VALID,920.007,VALID,0,VALID,75.1059,VALID,347.894,VALID,23.6602,VALID,32,VALID,0,
2013-10-02, 10:17:04,VALID,920.058,VALID,0,VALID,72.9485,VALID,346.927,VALID,23.6992,VALID,32,VALID,0,
2013-10-02, 10:18:04,VALID,920.042,VALID,0,VALID,71.0579,VALID,347.572,VALID,23.7773,VALID,32,VALID,0,
2013-10-02, 10:19:04,VALID,920.047,VALID,0,VALID,70.8063,VALID,347.787,VALID,23.8944,VALID,32,VALID,0,
2013-10-02, 10:20:04,VALID,920.039,VALID,0,VALID,71.0807,VALID,345.531,VALID,24.1324,VALID,32,VALID,0,
2013-10-02, 10:21:04,VALID,920.043,VALID,0,VALID,69.739,VALID,342.952,VALID,24.3044,VALID,32,VALID,0,
2013-10-02, 10:22:04,VALID,920.052,VALID,0,VALID,75.9673,VALID,342.093,VALID,24.3453,VALID,98,VALID,0,
2013-10-02, 10:23:04,VALID,920.05,VALID,0,VALID,76.2418,VALID,340.911,VALID,24.111,VALID,131,VALID,0,
2013-10-02, 10:24:04,VALID,920.056,VALID,0,VALID,77.0194,VALID,339.084,VALID,24.0896,VALID,139,VALID,0,
2013-10-02, 10:25:04,VALID,920.063,VALID,0,VALID,77.8732,VALID,335.002,VALID,24.1305,VALID,189,VALID,0,
2013-10-02, 10:26:04,VALID,920.046,VALID,0,VALID,74.4808,VALID,334.679,VALID,24.0311,VALID,149,VALID,0,
2013-10-02, 10:27:04,VALID,920.032,VALID,0,VALID,76.6611,VALID,332.96,VALID,24.0134,VALID,146,VALID,0,
2013-10-02, 10:28:04,VALID,920.033,VALID,0,VALID,75.3498,VALID,331.778,VALID,23.9158,VALID,147,VALID,0,
2013-10-02, 10:29:04,VALID,920.035,VALID,0,VALID,77.7055,VALID,331.134,VALID,23.74,VALID,140,VALID,0,
2013-10-02, 10:30:04,VALID,920.043,VALID,0,VALID,78.7346,VALID,330.167,VALID,23.6992,VALID,130,VALID,0,
2013-10-02, 10:31:04,VALID,920.065,VALID,0,VALID,79.2835,VALID,330.059,VALID,23.7968,VALID,103,VALID,0,
2013-10-02, 10:32:04,VALID,920.072,VALID,0,VALID,76.7449,VALID,330.382,VALID,23.9548,VALID,129,VALID,0,
2013-10-02, 10:33:04,VALID,920.09,VALID,0,VALID,74.153,VALID,332.638,VALID,24.0115,VALID,140,VALID,0,
2013-10-02, 10:34:04,VALID,920.107,VALID,0,VALID,75.0754,VALID,334.787,VALID,23.9335,VALID,129,VALID,0,
2013-10-02, 10:35:04,VALID,920.095,VALID,0,VALID,72.1937,VALID,335.968,VALID,23.8962,VALID,156,VALID,0,
2013-10-02, 10:36:04,VALID,920.084,VALID,0,VALID,75.022,VALID,336.828,VALID,23.8962,VALID,154,VALID,0,
2013-10-02, 10:37:04,VALID,920.084,VALID,0,VALID,76.1884,VALID,335.861,VALID,23.8163,VALID,148,VALID,0,
2013-10-02, 10:38:04,VALID,920.106,VALID,0,VALID,76.3256,VALID,334.142,VALID,23.6797,VALID,138,VALID,0,
2013-10-02, 10:39:04,VALID,920.082,VALID,0,VALID,76.2265,VALID,332.53,VALID,23.701,VALID,182,VALID,0,
2013-10-02, 10:40:04,VALID,920.086,VALID,0,VALID,76.7373,VALID,329.522,VALID,23.6779,VALID,171,VALID,0,
2013-10-02, 10:41:04,VALID,920.131,VALID,0,VALID,76.5086,VALID,328.34,VALID,23.7986,VALID,171,VALID,0,
2013-10-02, 10:42:04,VALID,920.112,VALID,0,VALID,75.5328,VALID,328.662,VALID,23.9139,VALID,189,VALID,0,
2013-10-02, 10:43:04,VALID,920.106,VALID,0,VALID,74.7323,VALID,327.481,VALID,23.9316,VALID,186,VALID,0,
2013-10-02, 10:44:04,VALID,920.12,VALID,0,VALID,73.1391,VALID,324.472,VALID,24.0115,VALID,163,VALID,0,
2013-10-02, 10:45:04,VALID,920.109,VALID,0,VALID,72.1251,VALID,323.398,VALID,24.0506,VALID,162,VALID,0,
2013-10-02, 10:46:04,VALID,920.08,VALID,0,VALID,72.9561,VALID,322.323,VALID,24.0311,VALID,174,VALID,0,
2013-10-02, 10:47:04,VALID,920.096,VALID,0,VALID,71.5915,VALID,322.216,VALID,24.0115,VALID,167,VALID,0,
2013-10-02, 10:48:04,VALID,920.094,VALID,0,VALID,71.2408,VALID,322.323,VALID,23.9939,VALID,169,VALID,0,
2013-10-02, 10:49:04,VALID,920.105,VALID,0,VALID,71.7973,VALID,322.001,VALID,23.953,VALID,170,VALID,0,
2013-10-02, 10:50:04,VALID,920.146,VALID,0,VALID,72.3615,VALID,322.109,VALID,23.8944,VALID,163,VALID,0,
2013-10-02, 10:51:04,VALID,920.119,VALID,0,VALID,73.1086,VALID,321.894,VALID,23.8749,VALID,163,VALID,0,
2013-10-02, 10:52:04,VALID,920.134,VALID,0,VALID,72.3005,VALID,322.968,VALID,23.8926,VALID,170,VALID,0,
2013-10-02, 10:53:04,VALID,920.127,VALID,0,VALID,72.8646,VALID,323.828,VALID,23.953,VALID,170,VALID,0,
2013-10-02, 10:54:04,VALID,920.117,VALID,0,VALID,72.0718,VALID,324.15,VALID,23.9316,VALID,175,VALID,0,
2013-10-02, 10:55:04,VALID,920.126,VALID,0,VALID,72.3233,VALID,324.043,VALID,24.0292,VALID,175,VALID,0,
2013-10-02, 10:56:04,VALID,920.135,VALID,0,VALID,73.7032,VALID,324.15,VALID,24.1287,VALID,175,VALID,0,
2013-10-02, 10:57:04,VALID,920.149,VALID,0,VALID,71.7592,VALID,324.365,VALID,24.1677,VALID,170,VALID,0,
2013-10-02, 10:58:04,VALID,920.156,VALID,0,VALID,71.3399,VALID,324.472,VALID,24.2049,VALID,171,VALID,0,
2013-10-02, 10:59:04,VALID,920.129,VALID,0,VALID,71.4467,VALID,325.332,VALID,24.3416,VALID,171,VALID,0,
2013-10-02, 11:00:04,VALID,920.121,VALID,0,VALID,71.7211,VALID,326.406,VALID,24.5173,VALID,171,VALID,0,
2013-10-02, 11:01:04,VALID,920.155,VALID,0,VALID,71.5,VALID,327.803,VALID,24.6949,VALID,171,VALID,0,
2013-10-02, 11:02:04,VALID,920.148,VALID,0,VALID,70.7682,VALID,329.844,VALID,24.6363,VALID,171,VALID,0,
2013-10-02, 11:03:04,VALID,920.146,VALID,0,VALID,70.9054,VALID,332.101,VALID,24.5564,VALID,171,VALID,0,
2013-10-02, 11:04:04,VALID,920.131,VALID,0,VALID,71.2408,VALID,334.894,VALID,24.5368,VALID,171,VALID,0,
2013-10-02, 11:05:04,VALID,920.148,VALID,0,VALID,70.3946,VALID,338.117,VALID,24.654,VALID,171,VALID,0,
2013-10-02, 11:06:04,VALID,920.115,VALID,0,VALID,69.9525,VALID,342.093,VALID,24.7711,VALID,171,VALID,0,
2013-10-02, 11:07:04,VALID,920.12,VALID,0,VALID,69.8,VALID,346.39,VALID,24.9664,VALID,171,VALID,0,
2013-10-02, 11:08:04,VALID,920.104,VALID,0,VALID,71.1189,VALID,351.655,VALID,25.1831,VALID,90,VALID,0,
2013-10-02, 11:09:04,VALID,920.05,VALID,0,VALID,69.1215,VALID,356.705,VALID,25.3198,VALID,90,VALID,0,
2013-10-02, 11:10:04,VALID,920.091,VALID,0,VALID,70.1202,VALID,361.862,VALID,25.3589,VALID,90,VALID,0,